STARLINK-1719 (46331 NORAD) Tracking and Keplerian Element Data

This shows tracking and keplerian element data for the satellite.

Feedback or suggestion? Click here.




ElementValue
Catalog46331
NameSTARLINK-1719
Epoch Orbit175
Epoch Day335.91670139
Epoch Year2020
RAAN17.2574
Inclination52.9986
Eccentricity0.0001274
Argument of Perigee76.7024
Mean Anonmoly348.6384
Mean Motion15.05565755
Decay Rate0.00019885
L11 46331U 20062G 20335.91670139 .00019885 00000-0 13806-2 0 9997
L22 46331 52.9986 17.2574 0001274 76.7024 348.6384 15.05565755 1757

Live tracking and technical data element details for STARLINK-1719 (NORAD 46331). STARLINK-1719 can be tracked NOW for your location showing map with azimuth and elevation plus other details from your city location.

Track the satellite on the map from your city or location and see movement details for azimuth, elevation, latitude, longitude, range, height, and movement on the map or in text.







IsCatalogInMostPopularTable: catalog: 46331, numindb: 23
Update: records affected: 1



GetName: 46331 STARLINK-1719

Hit Count: updated at: Wed, 02 Dec 2020 05:37:44 GMT